Theta_e
304 306 302 301 302 302 303 304 305 305 306 305 305 305 305 305 306 306 306 305 306 306 306 306 306 305 306 307 314 322 329 329 329 328 325 325 323 322 322 324 324 325 322 319
305 303 302 302 304 304 305 306 311 307 305 305 306 306 306 305 305 305 305 305 306 307 307 307 307 307 307 307 309 316 324 328 328 327 325 324 323 322 322 323 321 319 317 320
304 303 302 303 303 303 304 306 306 306 306 306 307 306 304 305 305 305 306 306 307 307 308 309 310 309 308 307 308 310 317 326 328 327 325 323 322 320 320 319 316 315 319 318
304 302 302 302 303 303 303 304 304 305 309 309 307 311 306 304 305 306 305 307 307 310 310 310 310 309 309 310 309 309 314 321 326 327 324 322 316 315 315 315 313 315 317 315
303 302 302 303 303 303 302 304 304 305 309 310 309 309 305 306 304 304 305 306 308 310 311 309 308 308 309 310 311 311 310 319 321 327 325 320 316 314 313 311 310 310 309 309
304 302 302 304 303 303 304 305 305 307 308 309 309 310 307 304 304 304 305 305 308 308 310 310 308 308 310 309 310 311 311 317 320 324 324 319 318 316 312 308 308 305 304 304
303 302 302 303 303 304 304 305 307 307 310 310 303 306 306 305 305 304 304 305 307 309 309 309 308 309 309 309 309 310 312 313 318 319 323 317 319 315 309 308 307 303 300 298
303 304 301 303 303 303 302 304 306 305 303 307 305 306 304 304 304 304 304 305 307 307 307 308 308 307 306 306 306 307 308 313 317 319 321 318 318 312 310 309 305 302 299 297
302 302 301 300 300 301 304 305 304 305 306 308 304 303 303 304 304 304 303 305 305 306 307 305 304 303 303 303 303 304 307 312 317 319 320 318 318 311 309 305 303 301 300 298
301 301 300 300 300 301 302 303 305 306 306 304 304 306 304 306 303 304 305 305 305 305 304 302 301 301 301 301 302 304 307 312 318 320 318 317 313 310 305 303 302 300 296 294
300 300 302 300 302 302 303 304 304 305 303 304 304 305 305 306 304 306 305 305 305 303 302 301 300 300 300 301 308 307 309 314 318 318 317 314 309 305 301 299 298 296 294 291
300 301 301 301 299 299 300 302 303 304 301 302 302 302 303 304 305 304 304 305 302 302 301 300 300 299 300 306 313 314 315 317 317 316 308 305 302 300 297 296 294 293 291 291
300 300 301 305 304 302 302 301 302 302 302 302 303 303 302 304 303 304 304 302 301 300 300 299 299 298 299 304 306 315 316 314 309 305 302 300 298 297 296 295 293 292 291 290
298 299 300 299 300 298 298 298 298 299 301 301 302 302 302 304 303 304 301 300 300 300 299 298 297 296 297 301 303 307 308 305 303 300 299 298 297 295 294 292 292 291 290 290
300 298 299 299 299 298 297 297 297 298 299 300 300 301 302 302 302 300 299 300 299 299 298 297 296 295 295 298 299 300 302 301 300 298 297 295 294 293 292 291 290 290 289 289
299 298 295 296 297 295 296 296 297 297 297 298 299 300 302 303 300 298 297 299 298 298 297 296 295 294 293 294 296 297 297 297 297 296 294 293 291 291 290 290 290 290 290 290
297 297 297 297 295 294 297 296 296 298 299 299 299 300 301 301 298 297 298 297 297 297 296 295 294 293 292 292 293 294 295 295 293 293 292 291 291 290 290 290 290 290 290 290
298 297 297 297 296 300 302 296 297 296 296 296 299 300 302 299 297 297 299 296 296 296 295 293 292 292 291 291 292 292 293 292 292 292 291 291 291 290 290 291 291 290 291 292
297 297 297 296 297 298 298 301 303 301 300 299 299 302 299 298 296 298 296 295 296 294 293 292 291 290 290 291 291 292 292 291 291 291 292 291 291 291 290 290 290 291 292 292
293 295 297 291 296 298 300 301 298 296 298 302 300 298 298 296 295 295 294 295 295 292 292 291 291 291 291 290 291 291 291 292 291 291 291 291 291 291 291 291 291 292 293 292
294 294 297 298 296 297 296 297 296 298 301 298 298 296 294 294 294 294 294 294 294 292 291 291 291 291 290 291 291 291 290 290 289 290 291 291 292 292 292 291 292 292 291 291
295 296 295 296 297 296 296 297 299 300 299 297 295 293 293 293 294 294 294 293 293 291 291 291 291 291 291 292 291 290 290 290 291 292 291 292 292 292 292 292 290 291 291 288
295 298 298 297 297 297 296 299 299 299 298 296 295 293 292 292 293 294 294 293 292 290 290 291 291 292 293 294 294 291 290 292 292 292 291 291 292 292 292 293 290 288 287 287
289 292 293 293 295 294 295 295 295 295 294 294 293 292 292 293 294 293 293 292 291 290 288 290 292 291 291 293 294 292 293 294 293 290 290 291 292 291 290 289 288 287 287 287
294 289 291 293 293 293 293 294 294 294 293 292 291 291 292 292 293 292 292 291 290 289 288 288 290 290 290 294 294 293 293 294 293 292 291 290 289 289 288 288 288 288 287 288
290 292 292 295 294 294 294 293 292 292 291 291 290 291 291 290 291 291 291 289 288 288 287 287 287 290 291 293 293 294 293 293 293 290 289 288 288 288 288 287 287 287 287 287
Wind_Speed
2 3 3 4 4 5 10 13 16 17 20 17 16 25 25 24 24 25 23 21 20 20 21 24 25 28 30 32 32 34 34 40 40 40 35 33 33 33 30 30 29 27 27 28
5 1 3 3 3 6 10 14 13 14 11 19 20 27 27 22 21 22 22 21 21 20 17 17 21 23 28 29 30 33 32 38 42 42 37 36 35 34 31 29 27 28 29 32
6 4 2 5 10 9 10 13 11 18 21 20 17 19 11 21 19 16 19 18 15 16 13 14 14 18 23 27 29 32 34 38 44 43 40 36 29 29 25 28 29 33 35 33
6 3 3 8 11 5 10 7 14 19 16 8 13 11 12 17 21 21 17 10 12 13 13 14 16 20 23 22 29 32 33 36 45 49 41 40 35 31 31 31 29 35 34 32
4 5 7 9 3 3 7 13 17 20 17 13 13 6 11 27 23 17 17 16 13 14 16 17 17 23 28 26 26 30 33 35 44 50 51 46 40 38 31 31 32 33 31 29
12 4 4 3 7 10 13 15 21 11 2 5 11 11 18 25 20 20 21 19 18 18 18 19 23 28 27 29 31 33 34 36 41 42 47 48 47 38 33 31 36 32 30 30
7 5 2 4 8 6 5 13 5 3 7 14 15 17 22 27 22 22 22 22 21 19 19 20 22 19 26 33 34 34 35 37 39 43 47 49 48 42 43 42 38 35 32 31
4 3 6 7 3 6 12 3 3 8 12 19 19 11 10 22 23 21 18 20 20 24 22 22 24 25 32 35 36 37 40 38 39 43 41 50 47 42 43 43 41 39 35 34
4 4 2 6 7 4 2 5 6 7 15 14 9 23 21 16 11 17 23 21 24 24 22 27 28 25 32 34 37 39 40 40 40 42 37 47 43 42 39 38 42 41 41 40
1 7 1 3 3 10 11 7 3 5 7 14 15 25 13 16 17 22 21 24 25 24 31 27 25 27 32 37 40 39 40 39 40 40 39 30 37 41 40 43 47 43 40 43
2 3 2 4 6 5 4 5 7 8 6 7 11 15 7 12 22 17 26 26 24 27 26 25 24 22 31 40 34 35 36 38 37 37 37 34 31 38 42 41 44 46 48 48
4 2 6 8 13 10 8 11 11 6 9 13 13 21 22 18 21 25 27 23 27 26 27 24 21 18 20 25 16 18 24 29 32 34 38 37 38 39 39 40 42 45 46 48
6 3 6 4 2 3 4 7 10 14 12 20 11 12 13 24 27 27 21 24 24 26 25 20 17 15 16 13 8 8 14 25 33 37 39 40 38 33 37 43 47 48 47 45
6 3 10 10 12 13 14 17 17 16 10 18 23 33 31 24 29 26 23 25 21 24 21 17 15 13 14 12 9 10 21 31 33 36 37 37 38 38 38 40 45 49 48 49
3 6 10 18 20 21 23 24 23 20 24 16 31 30 28 28 25 27 18 22 24 22 20 16 14 11 10 8 9 14 11 25 34 34 33 36 35 38 41 39 40 45 46 45
6 4 2 9 8 10 16 23 24 25 25 24 26 32 24 21 24 24 23 17 26 21 20 15 12 10 8 6 8 13 12 20 27 34 34 37 39 40 40 43 44 42 45 44
6 4 2 7 7 12 9 10 7 12 13 14 20 23 20 22 24 21 18 19 23 20 17 14 10 8 7 8 7 10 15 23 24 32 34 37 39 39 40 44 45 41 44 42
5 7 4 7 7 6 3 13 16 16 18 18 20 21 17 20 23 19 5 15 19 17 16 12 8 6 9 8 12 15 17 21 27 30 33 36 38 37 39 41 40 38 42 40
8 7 4 4 4 14 9 1 4 5 17 15 16 12 17 20 22 10 7 16 16 12 11 8 9 7 12 13 15 19 19 22 25 27 31 35 40 39 38 34 35 36 40 36
8 9 7 2 4 5 3 2 3 9 9 4 6 15 18 19 12 16 22 17 16 12 12 9 11 10 15 16 23 23 19 21 22 25 29 33 36 36 34 35 36 36 37 33
5 5 15 10 6 9 14 13 6 2 4 6 11 16 18 12 11 19 18 15 11 10 14 14 14 13 14 20 25 22 22 21 26 33 35 35 34 36 37 36 35 35 32 30
9 9 6 7 6 11 10 1 5 3 3 9 15 12 14 15 14 13 14 14 13 13 14 17 14 15 20 21 25 23 22 26 33 35 33 34 36 34 35 34 31 29 26 24
5 7 5 11 8 7 9 9 5 4 9 12 13 12 12 14 13 13 12 12 11 9 11 14 14 16 19 22 24 21 20 30 32 32 30 31 32 31 30 30 27 25 23 23
6 11 5 3 9 19 19 18 16 15 15 12 9 9 9 10 10 9 7 8 8 10 10 12 12 13 15 17 21 22 23 25 27 24 25 25 27 25 24 25 25 24 23 20
4 12 8 10 18 19 21 16 18 16 11 5 6 6 7 7 7 5 5 5 5 8 12 11 8 10 11 13 15 17 18 20 22 22 21 20 21 21 20 19 21 21 20 19
8 10 7 8 10 10 6 2 2 4 3 3 3 5 3 2 5 4 4 5 7 7 7 7 7 9 9 9 11 12 13 14 16 16 16 16 17 17 17 16 14 17 16 17
Wind_Direction
9 255 25 16 2 307 295 295 298 302 307 309 298 293 296 299 293 285 287 289 287 285 293 289 274 272 268 265 252 252 234 203 203 203 200 198 189 192 194 197 193 192 190 192
224 216 59 11 333 302 296 293 289 293 303 310 295 294 291 286 285 296 295 293 292 293 288 286 284 277 270 267 265 247 249 212 200 201 197 197 192 190 190 186 185 186 189 196
295 22 347 326 317 305 295 301 309 304 311 298 303 296 312 304 288 297 294 285 290 289 289 293 301 289 271 263 261 262 246 226 200 202 192 196 191 178 184 182 184 188 194 196
278 77 306 302 301 290 305 354 307 302 316 309 338 294 308 296 309 301 301 313 291 292 290 294 297 298 297 275 262 253 260 232 221 195 191 186 175 169 185 183 181 188 193 194
50 317 307 297 306 285 282 319 301 291 287 300 293 251 285 300 307 313 316 314 292 279 284 294 300 296 287 288 290 262 247 243 224 200 193 185 182 189 181 175 178 181 183 188
265 292 266 297 298 263 291 295 294 272 307 246 255 252 300 299 302 316 300 306 297 298 294 291 304 302 283 285 281 273 252 243 227 229 189 185 186 186 167 170 167 170 176 178
317 211 208 256 290 190 260 329 312 276 286 284 298 309 271 289 295 318 310 306 306 293 301 295 299 291 283 283 273 264 260 245 225 217 194 184 189 182 172 171 169 164 167 174
319 230 194 169 265 308 307 296 315 305 312 300 301 260 275 309 298 300 320 316 316 312 298 294 299 293 284 279 270 261 256 245 222 212 213 185 185 178 178 173 170 170 167 170
305 265 158 238 272 241 109 247 335 274 264 275 268 278 294 297 301 320 320 310 311 306 311 307 298 292 286 278 266 255 248 241 215 206 209 189 181 175 175 168 168 164 170 172
80 285 195 291 275 232 238 351 277 237 291 302 289 297 286 315 318 314 310 313 315 328 311 303 303 298 290 278 265 248 238 236 208 195 188 196 172 170 166 162 161 163 161 163
220 257 219 296 201 282 211 252 217 263 265 295 306 307 311 318 307 311 318 321 331 311 306 309 304 299 291 288 258 232 225 221 196 178 179 175 168 156 157 156 155 157 158 156
197 276 273 262 301 297 261 269 280 270 285 285 294 276 291 282 326 318 321 332 317 314 313 311 307 304 301 300 300 204 201 197 175 170 149 147 153 152 150 149 149 154 150 154
173 199 298 275 158 111 218 234 238 265 274 267 276 268 291 311 311 320 326 325 316 313 313 315 315 317 316 316 352 253 178 147 144 143 143 144 146 150 149 148 150 151 148 149
165 233 240 258 294 326 287 275 275 272 272 274 260 276 289 311 313 316 330 325 312 317 320 319 323 328 325 338 3 65 131 139 139 141 143 144 147 148 147 146 147 143 151 152
223 257 248 264 273 280 279 281 278 255 255 255 269 285 293 303 314 320 336 319 326 324 331 328 329 333 332 349 13 83 110 137 141 138 139 136 137 139 139 139 140 143 144 146
184 265 313 286 260 274 281 272 267 265 265 258 265 272 288 315 317 320 338 324 327 330 333 330 329 334 343 360 24 78 107 120 134 131 130 133 133 137 137 136 138 139 141 146
185 243 294 270 347 305 267 256 238 267 254 264 276 286 313 312 320 328 320 330 326 332 332 333 334 338 345 17 64 94 107 116 120 124 129 131 135 135 136 138 139 139 144 154
206 205 258 289 316 264 340 292 285 273 281 276 276 283 299 314 317 314 277 325 334 332 335 336 340 347 4 51 79 97 108 111 119 121 125 128 131 131 133 136 138 146 151 158
234 203 257 268 280 290 282 116 354 340 296 284 284 306 311 319 316 321 330 350 341 330 331 333 348 8 42 60 88 91 97 108 115 123 128 130 131 131 134 136 140 146 150 157
216 237 227 150 265 264 324 111 58 312 285 49 347 320 320 332 323 317 343 351 344 343 344 351 6 46 62 71 91 90 91 102 106 115 118 124 128 130 133 138 142 147 156 163
174 198 220 225 256 273 263 286 230 274 304 335 339 321 320 311 304 309 326 343 353 351 352 16 30 45 55 81 90 84 86 85 99 110 114 117 123 129 138 144 150 155 161 168
176 171 190 203 224 262 209 174 210 319 305 339 321 333 317 317 322 324 338 344 352 0 358 14 36 44 56 72 83 82 82 99 109 113 114 124 136 141 146 149 154 161 164 168
221 204 196 201 215 250 198 243 252 312 300 304 311 317 323 311 326 337 341 343 346 7 1 20 35 53 70 90 98 89 96 119 124 126 126 134 142 147 153 157 159 162 169 174
237 216 237 182 236 246 255 251 263 270 278 286 296 311 310 310 326 330 336 346 349 356 7 15 52 45 44 72 103 110 122 126 127 117 129 138 144 151 161 165 167 171 178 183
200 154 213 253 274 280 276 264 264 263 261 281 290 283 285 312 314 327 336 350 1 354 3 20 52 76 63 76 100 109 119 128 130 137 144 149 154 158 162 172 179 187 194 199
183 206 212 231 225 242 281 250 164 198 220 223 291 309 309 310 314 328 342 2 7 2 10 41 52 98 102 105 122 135 145 152 151 152 156 159 163 168 176 182 194 205 211 216